(2013 GJ69) |
Classification: Amor [NEO] SPK-ID: 3634713 |
[ hide orbit diagram ]
For accurate long-term ephemerides, please instead use our Horizons system.This orbit viewer was implemented using two-body methods, and hence should not be used for determining accurate long-term trajectories (over several years or decades) or planetary encounter circumstances.
Orbital Elements at Epoch 2459000.5 (2020-May-31.0) TDB
Reference: JPL 10 (heliocentric ecliptic J2000)
Element | Value | Uncertainty (1-sigma) | Units |
e | .5411508671000145 | 4.0759e-06 | |
a | 2.218805200318294 | 1.9232e-05 | au |
q | 1.018096842240028 | 3.2478e-07 | au |
i | 6.623850738508999 | 6.9928e-05 | deg |
node | 201.6799974107963 | 3.0356e-05 | deg |
peri | 11.1114110565115 | 0.00059653 | deg |
M | 54.14889649315594 | 0.010118 | deg |
tp | 2458818.921552210928 (2019-Dec-01.42155221) | 0.031568 | TDB |
period | 1207.194337050394 3.31 | 0.015696 4.297e-05 | d yr |
n | .2982121344932816 | 3.8773e-06 | deg/d |
Q | 3.41951355839656 | 2.964e-05 | au |
|
| | Orbit Determination Parameters
Additional Information
|
[ show covariance matrix ]
Physical Parameter Table
Parameter |
Symbol |
Value |
Units |
Sigma |
Reference |
Notes |
absolute magnitude |
H |
26.5 |
|
n/a |
MPO265059 |
|
|
[ show close-approach data ]
|